Content
SEND FEEDBACK

Daily
Averages
Monthly
Summary
United States of America

SUNRISE MANOR, NEVADA


Home > North America > United States > Nevada
Elevation: 1820 feet     Latitude: 36 12N     Longitude: 115 05W

WEATHER
 
SELECT A DAY
Number of Records: 138,061;   Date Range: 12/15/97 - 10/20/14
 
SHARE

PRINT THIS DATA

[ ← Previous Day ]
WEATHER ALMANAC - FEBRUARY 13, 2013
[ Next Day → ]
[ °C ]   °F
Weather ElementAverageHighLow
Temperature49.7 °F61 °F (3:53 pm)35.1 °F (4:53 am)
Dewpoint19.6 °F23 °F (8:53 pm)15.8 °F (3:53 am)
Humidity31.9 %46 % (4:53 am)20 % (1:53 pm)
Barometer30.28 in30.37 in (7:53 am)30.20 in (4:53 pm)
Wind Speed5 mph11.5 mph (8:53 am)
Weather ElementAverage
Visibility10 mi
Wind DirectionS (180.4 °)

Weather ElementTotal
Precipitation---
Heating Degree Days17 (Base 65)
Averaged from 23 records on February 13, 2013
WEATHER CONDITIONS BREAKOUT
WIND DIRECTION BREAKOUT
WEATHER BY HOUR - FEBRUARY 13, 2013
[ °C ]   °F
Local TimeTemperatureDewpointHumidityBarometerVisibilityWind DirectionWind SpeedGust SpeedPrecipitationEventsConditions
1:53 AM39.0 °F17.1 °F41 %30.34 in10.0 miWNW (300°)8.1 mphClear
2:53 AM37.9 °F16.0 °F41 %30.35 in10.0 miNorth (10°)4.6 mphClear
3:53 AM35.6 °F15.8 °F44 %30.28 in10.0 miNW (320°)4.6 mphClear
4:53 AM35.1 °F16.0 °F46 %30.35 in10.0 miWNW (290°)4.6 mphClear
5:53 AM39.0 °F18.0 °F43 %30.33 in10.0 miWNW (290°)8.1 mphClear
6:53 AM39.0 °F19.0 °F45 %30.35 in10.0 miNW (310°)5.8 mphClear
7:53 AM44.1 °F19.9 °F38 %30.37 in10.0 miNorth (10°)4.6 mphClear
8:53 AM48.9 °F19.9 °F32 %30.36 in10.0 miNorth (10°)11.5 mphClear
9:53 AM50.0 °F19.9 °F31 %30.37 in10.0 miESE (110°)4.6 mphClear
10:53 AM55.0 °F19.9 °F25 %30.34 in10.0 miNE (50°)3.5 mphClear
11:53 AM55.9 °F19.0 °F24 %30.30 in10.0 miEast (100°)5.8 mphClear
12:53 PM59.0 °F19.0 °F21 %30.27 in10.0 miEast (90°)5.8 mphClear
1:53 PM60.1 °F19.0 °F20 %30.24 in10.0 miESE (120°)4.6 mphClear
2:53 PM60.1 °F19.0 °F20 %30.22 in10.0 miCalmClear
3:53 PM61.0 °F19.0 °F20 %30.21 in10.0 miSE (130°)3.5 mphClear
4:53 PM61.0 °F19.9 °F21 %30.20 in10.0 miSouth (180°)3.5 mphClear
5:53 PM59.0 °F21.0 °F23 %30.21 in10.0 miSSW (210°)3.5 mphClear
6:53 PM55.9 °F21.0 °F26 %30.22 in10.0 miWest (270°)5.8 mphClear
7:53 PM51.1 °F21.9 °F32 %30.22 in10.0 miNW (320°)5.8 mphClear
8:53 PM48.9 °F23.0 °F36 %30.22 in10.0 miNNW (330°)3.5 mphClear
9:53 PM50.0 °F21.9 °F33 %30.23 in10.0 miCalmClear
10:53 PM48.9 °F21.9 °F35 %30.23 in10.0 miNorth (360°)4.6 mphClear
11:53 PM48.9 °F23.0 °F36 %30.22 in10.0 miNNW (340°)8.1 mphClear
Hourly data recorded from KVGT, located miles away from Sunrise Manor, Nevada







STORIES FROM OUR PARTNERS